Year,Month,Day,Hour,Minute,Value (Times are PST for temperature in C)
2017,05,29,00,00,18.20
2017,05,29,00,01,18.20
2017,05,29,00,02,18.10
2017,05,29,00,03,18.10
2017,05,29,00,04,18.10
2017,05,29,00,05,18.10
2017,05,29,00,06,18.00
2017,05,29,00,07,18.00
2017,05,29,00,08,18.00
2017,05,29,00,09,17.90
2017,05,29,00,10,17.90
2017,05,29,00,11,17.90
2017,05,29,00,12,17.90
2017,05,29,00,13,17.80
2017,05,29,00,14,17.80
2017,05,29,00,15,17.80
2017,05,29,00,16,17.80
2017,05,29,00,17,17.80
2017,05,29,00,18,17.70
2017,05,29,00,19,17.70
2017,05,29,00,20,17.70
2017,05,29,00,21,17.70
2017,05,29,00,22,17.70
2017,05,29,00,23,17.70
2017,05,29,00,24,17.60
2017,05,29,00,25,17.60
2017,05,29,00,26,17.60
2017,05,29,00,27,17.60
2017,05,29,00,28,17.50
2017,05,29,00,29,17.50
2017,05,29,00,30,17.50
2017,05,29,00,31,17.50
2017,05,29,00,32,17.50
2017,05,29,00,33,17.50
2017,05,29,00,34,17.50
2017,05,29,00,35,17.50
2017,05,29,00,36,17.50
2017,05,29,00,37,17.50
2017,05,29,00,38,17.50
2017,05,29,00,39,17.50
2017,05,29,00,40,17.50
2017,05,29,00,41,17.60
2017,05,29,00,42,17.60
2017,05,29,00,43,17.60
2017,05,29,00,44,17.60
2017,05,29,00,45,17.60
2017,05,29,00,46,17.60
2017,05,29,00,47,17.60
2017,05,29,00,48,17.60
2017,05,29,00,49,17.60
2017,05,29,00,50,17.60
2017,05,29,00,51,17.60
2017,05,29,00,52,17.60
2017,05,29,00,53,17.60
2017,05,29,00,54,17.60
2017,05,29,00,55,17.60
2017,05,29,00,56,17.60
2017,05,29,00,57,17.50
2017,05,29,00,58,17.50
2017,05,29,00,59,17.40
2017,05,29,01,00,17.40
2017,05,29,01,01,17.40
2017,05,29,01,02,17.40
2017,05,29,01,03,17.30
2017,05,29,01,04,17.30
2017,05,29,01,05,17.30
2017,05,29,01,06,17.30
2017,05,29,01,07,17.30
2017,05,29,01,08,17.30
2017,05,29,01,09,17.30
2017,05,29,01,10,17.20
2017,05,29,01,11,17.20
2017,05,29,01,12,17.20
2017,05,29,01,13,17.20
2017,05,29,01,14,17.20
2017,05,29,01,15,17.20
2017,05,29,01,16,17.10
2017,05,29,01,17,17.10
2017,05,29,01,18,17.10
2017,05,29,01,19,17.00
2017,05,29,01,20,17.00
2017,05,29,01,21,17.00
2017,05,29,01,22,17.00
2017,05,29,01,23,17.00
2017,05,29,01,24,17.00
2017,05,29,01,25,17.00
2017,05,29,01,26,17.00
2017,05,29,01,27,17.00
2017,05,29,01,28,17.00
2017,05,29,01,29,17.00
2017,05,29,01,30,16.90
2017,05,29,01,31,16.90
2017,05,29,01,32,16.80
2017,05,29,01,33,16.90
2017,05,29,01,34,16.90
2017,05,29,01,35,17.00
2017,05,29,01,36,17.00
2017,05,29,01,37,17.10
2017,05,29,01,38,17.10
2017,05,29,01,39,17.10
2017,05,29,01,40,17.10
2017,05,29,01,41,17.10
2017,05,29,01,42,17.00
2017,05,29,01,43,17.00
2017,05,29,01,44,17.00
2017,05,29,01,45,17.00
2017,05,29,01,46,17.00
2017,05,29,01,47,17.00
2017,05,29,01,48,17.00
2017,05,29,01,49,17.00
2017,05,29,01,50,17.10
2017,05,29,01,51,17.10
2017,05,29,01,52,17.10
2017,05,29,01,53,17.10
2017,05,29,01,54,17.10
2017,05,29,01,55,17.10
2017,05,29,01,56,17.00
2017,05,29,01,57,17.00
2017,05,29,01,58,17.00
2017,05,29,01,59,16.90
2017,05,29,02,00,16.90
2017,05,29,02,01,16.90
2017,05,29,02,02,16.80
2017,05,29,02,03,16.80
2017,05,29,02,04,16.80
2017,05,29,02,05,16.70
2017,05,29,02,06,16.70
2017,05,29,02,07,16.70
2017,05,29,02,08,16.70
2017,05,29,02,09,16.70
2017,05,29,02,10,16.70
2017,05,29,02,11,16.70
2017,05,29,02,12,16.80
2017,05,29,02,13,16.80
2017,05,29,02,14,16.80
2017,05,29,02,15,16.80
2017,05,29,02,16,16.80
2017,05,29,02,17,16.80
2017,05,29,02,18,16.80
2017,05,29,02,19,16.80
2017,05,29,02,20,16.80
2017,05,29,02,21,16.80
2017,05,29,02,22,16.80
2017,05,29,02,23,16.80
2017,05,29,02,24,16.80
2017,05,29,02,25,16.80
2017,05,29,02,26,16.80
2017,05,29,02,27,16.80
2017,05,29,02,28,16.80
2017,05,29,02,29,16.80
2017,05,29,02,30,16.80
2017,05,29,02,31,16.80
2017,05,29,02,32,16.80
2017,05,29,02,33,16.80
2017,05,29,02,34,16.90
2017,05,29,02,35,16.90
2017,05,29,02,36,16.90
2017,05,29,02,37,16.90
2017,05,29,02,38,16.90
2017,05,29,02,39,16.90
2017,05,29,02,40,16.90
2017,05,29,02,41,16.90
2017,05,29,02,42,16.90
2017,05,29,02,43,16.90
2017,05,29,02,44,16.90
2017,05,29,02,45,16.90
2017,05,29,02,46,16.80
2017,05,29,02,47,16.80
2017,05,29,02,48,16.80
2017,05,29,02,49,16.80
2017,05,29,02,50,16.80
2017,05,29,02,51,16.70
2017,05,29,02,52,16.70
2017,05,29,02,53,16.70
2017,05,29,02,54,16.60
2017,05,29,02,55,16.60
2017,05,29,02,56,16.60
2017,05,29,02,57,16.60
2017,05,29,02,58,16.50
2017,05,29,02,59,16.50
2017,05,29,03,00,16.40
2017,05,29,03,01,16.40
2017,05,29,03,02,16.30
2017,05,29,03,03,16.30
2017,05,29,03,04,16.30
2017,05,29,03,05,16.30
2017,05,29,03,06,16.30
2017,05,29,03,07,16.30
2017,05,29,03,08,16.30
2017,05,29,03,09,16.20
2017,05,29,03,10,16.20
2017,05,29,03,11,16.20
2017,05,29,03,12,16.20
2017,05,29,03,13,16.10
2017,05,29,03,14,16.10
2017,05,29,03,15,16.20
2017,05,29,03,16,16.20
2017,05,29,03,17,16.20
2017,05,29,03,18,16.10
2017,05,29,03,19,16.10
2017,05,29,03,20,16.10
2017,05,29,03,21,16.10
2017,05,29,03,22,16.10
2017,05,29,03,23,16.00
2017,05,29,03,24,16.00
2017,05,29,03,25,15.90
2017,05,29,03,26,15.80
2017,05,29,03,27,15.80
2017,05,29,03,28,15.80
2017,05,29,03,29,15.80
2017,05,29,03,30,15.90
2017,05,29,03,31,15.90
2017,05,29,03,32,16.00
2017,05,29,03,33,16.10
2017,05,29,03,34,16.20
2017,05,29,03,35,16.30
2017,05,29,03,36,16.30
2017,05,29,03,37,16.40
2017,05,29,03,38,16.40
2017,05,29,03,39,16.40
2017,05,29,03,40,16.30
2017,05,29,03,41,16.20
2017,05,29,03,42,16.00
2017,05,29,03,43,15.90
2017,05,29,03,44,15.80
2017,05,29,03,45,15.70
2017,05,29,03,46,15.60
2017,05,29,03,47,15.60
2017,05,29,03,48,15.60
2017,05,29,03,49,15.60
2017,05,29,03,50,15.60
2017,05,29,03,51,15.50
2017,05,29,03,52,15.50
2017,05,29,03,53,15.50
2017,05,29,03,54,15.40
2017,05,29,03,55,15.40
2017,05,29,03,56,15.30
2017,05,29,03,57,15.30
2017,05,29,03,58,15.30
2017,05,29,03,59,15.20
2017,05,29,04,00,15.20
2017,05,29,04,01,15.20
2017,05,29,04,02,15.20
2017,05,29,04,03,15.10
2017,05,29,04,04,15.00
2017,05,29,04,05,15.00
2017,05,29,04,06,15.00
2017,05,29,04,07,15.00
2017,05,29,04,08,15.00
2017,05,29,04,09,15.00
2017,05,29,04,10,15.00
2017,05,29,04,11,15.00
2017,05,29,04,12,15.00
2017,05,29,04,13,15.00
2017,05,29,04,14,15.00
2017,05,29,04,15,15.00
2017,05,29,04,16,15.00
2017,05,29,04,17,15.00
2017,05,29,04,18,15.00
2017,05,29,04,19,15.00
2017,05,29,04,20,15.00
2017,05,29,04,21,15.00
2017,05,29,04,22,15.00
2017,05,29,04,23,14.90
2017,05,29,04,24,14.80
2017,05,29,04,25,14.80
2017,05,29,04,26,14.80
2017,05,29,04,27,14.90
2017,05,29,04,28,15.00
2017,05,29,04,29,15.00
2017,05,29,04,30,15.00
2017,05,29,04,31,15.00
2017,05,29,04,32,15.00
2017,05,29,04,33,15.00
2017,05,29,04,34,15.00
2017,05,29,04,35,14.90
2017,05,29,04,36,14.90
2017,05,29,04,37,14.80
2017,05,29,04,38,14.80
2017,05,29,04,39,14.80
2017,05,29,04,40,14.80
2017,05,29,04,41,14.80
2017,05,29,04,42,14.80
2017,05,29,04,43,14.70
2017,05,29,04,44,14.70
2017,05,29,04,45,14.70
2017,05,29,04,46,14.60
2017,05,29,04,47,14.50
2017,05,29,04,48,14.50
2017,05,29,04,49,14.40
2017,05,29,04,50,14.40
2017,05,29,04,51,14.30
2017,05,29,04,52,14.30
2017,05,29,04,53,14.30
2017,05,29,04,54,14.30
2017,05,29,04,55,14.30
2017,05,29,04,56,14.30
2017,05,29,04,57,14.30
2017,05,29,04,58,14.30
2017,05,29,04,59,14.20
2017,05,29,05,00,14.20
2017,05,29,05,01,14.20
2017,05,29,05,02,14.20
2017,05,29,05,03,14.20
2017,05,29,05,04,14.20
2017,05,29,05,05,14.20
2017,05,29,05,06,14.20
2017,05,29,05,07,14.20
2017,05,29,05,08,14.20
2017,05,29,05,09,14.20
2017,05,29,05,10,14.10
2017,05,29,05,11,14.00
2017,05,29,05,12,14.00
2017,05,29,05,13,14.00
2017,05,29,05,14,13.90
2017,05,29,05,15,13.90
2017,05,29,05,16,13.90
2017,05,29,05,17,13.90
2017,05,29,05,18,13.90
2017,05,29,05,19,13.90
2017,05,29,05,20,13.90
2017,05,29,05,21,13.90
2017,05,29,05,22,13.90
2017,05,29,05,23,13.90
2017,05,29,05,24,13.90
2017,05,29,05,25,13.90
2017,05,29,05,26,14.00
2017,05,29,05,27,14.00
2017,05,29,05,28,14.10
2017,05,29,05,29,14.20
2017,05,29,05,30,14.20
2017,05,29,05,31,14.30
2017,05,29,05,32,14.30
2017,05,29,05,33,14.30
2017,05,29,05,34,14.30
2017,05,29,05,35,14.30
2017,05,29,05,36,14.30
2017,05,29,05,37,14.30
2017,05,29,05,38,14.40
2017,05,29,05,39,14.40
2017,05,29,05,40,14.40
2017,05,29,05,41,14.40
2017,05,29,05,42,14.40
2017,05,29,05,43,14.50
2017,05,29,05,44,14.50
2017,05,29,05,45,14.50
2017,05,29,05,46,14.60
2017,05,29,05,47,14.60
2017,05,29,05,48,14.60
2017,05,29,05,49,14.60
2017,05,29,05,50,14.60
2017,05,29,05,51,14.50
2017,05,29,05,52,14.50
2017,05,29,05,53,14.40
2017,05,29,05,54,14.40
2017,05,29,05,55,14.40
2017,05,29,05,56,14.40
2017,05,29,05,57,14.40
2017,05,29,05,58,14.40
2017,05,29,05,59,14.50
2017,05,29,06,00,14.50
2017,05,29,06,01,14.50
2017,05,29,06,02,14.50
2017,05,29,06,03,14.50
2017,05,29,06,04,14.60
2017,05,29,06,05,14.60
2017,05,29,06,06,14.60
2017,05,29,06,07,14.50
2017,05,29,06,08,14.50
2017,05,29,06,09,14.50
2017,05,29,06,10,14.50
2017,05,29,06,11,14.40
2017,05,29,06,12,14.40
2017,05,29,06,13,14.40
2017,05,29,06,14,14.40
2017,05,29,06,15,14.40
2017,05,29,06,16,14.40
2017,05,29,06,17,14.40
2017,05,29,06,18,14.40
2017,05,29,06,19,14.40
2017,05,29,06,20,14.50
2017,05,29,06,21,14.50
2017,05,29,06,22,14.50
2017,05,29,06,23,14.60
2017,05,29,06,24,14.60
2017,05,29,06,25,14.60
2017,05,29,06,26,14.70
2017,05,29,06,27,14.80
2017,05,29,06,28,15.00
2017,05,29,06,29,15.00
2017,05,29,06,30,15.00
2017,05,29,06,31,15.00
2017,05,29,06,32,15.00
2017,05,29,06,33,15.10
2017,05,29,06,34,15.20
2017,05,29,06,35,15.30
2017,05,29,06,36,15.40
2017,05,29,06,37,15.50
2017,05,29,06,38,15.50
2017,05,29,06,39,15.60
2017,05,29,06,40,15.60
2017,05,29,06,41,15.70
2017,05,29,06,42,15.70
2017,05,29,06,43,15.80
2017,05,29,06,44,15.80
2017,05,29,06,45,15.90
2017,05,29,06,46,16.00
2017,05,29,06,47,16.00
2017,05,29,06,48,16.10
2017,05,29,06,49,16.20
2017,05,29,06,50,16.30
2017,05,29,06,51,16.40
2017,05,29,06,52,16.40
2017,05,29,06,53,16.40
2017,05,29,06,54,16.40
2017,05,29,06,55,16.50
2017,05,29,06,56,16.50
2017,05,29,06,57,16.50
2017,05,29,06,58,16.50
2017,05,29,06,59,16.50
2017,05,29,07,00,16.50
2017,05,29,07,01,16.60
2017,05,29,07,02,16.60
2017,05,29,07,03,16.70
2017,05,29,07,04,16.70
2017,05,29,07,05,16.70
2017,05,29,07,06,16.80
2017,05,29,07,07,16.80
2017,05,29,07,08,16.90
2017,05,29,07,09,17.00
2017,05,29,07,10,17.10
2017,05,29,07,11,17.20
2017,05,29,07,12,17.30
2017,05,29,07,13,17.40
2017,05,29,07,14,17.50
2017,05,29,07,15,17.60
2017,05,29,07,16,17.70
2017,05,29,07,17,17.90
2017,05,29,07,18,18.00
2017,05,29,07,19,18.20
2017,05,29,07,20,18.30
2017,05,29,07,21,18.40
2017,05,29,07,22,18.50
2017,05,29,07,23,18.60
2017,05,29,07,24,18.60
2017,05,29,07,25,18.70
2017,05,29,07,26,18.80
2017,05,29,07,27,18.80
2017,05,29,07,28,18.90
2017,05,29,07,29,19.00
2017,05,29,07,30,19.10
2017,05,29,07,31,19.20
2017,05,29,07,32,19.30
2017,05,29,07,33,19.30
2017,05,29,07,34,19.40
2017,05,29,07,35,19.50
2017,05,29,07,36,19.50
2017,05,29,07,37,19.60
2017,05,29,07,38,19.70
2017,05,29,07,39,19.70
2017,05,29,07,40,19.70
2017,05,29,07,41,19.70
2017,05,29,07,42,19.60
2017,05,29,07,43,19.60
2017,05,29,07,44,19.60
2017,05,29,07,45,19.60
2017,05,29,07,46,19.60
2017,05,29,07,47,19.60
2017,05,29,07,48,19.60
2017,05,29,07,49,19.70
2017,05,29,07,50,19.70
2017,05,29,07,51,19.80
2017,05,29,07,52,19.80
2017,05,29,07,53,19.80
2017,05,29,07,54,19.80
2017,05,29,07,55,19.80
2017,05,29,07,56,19.80
2017,05,29,07,57,19.80
2017,05,29,07,58,19.80
2017,05,29,07,59,19.90
2017,05,29,08,00,19.90
2017,05,29,08,01,19.90
2017,05,29,08,02,19.90
2017,05,29,08,03,19.90
2017,05,29,08,04,19.90
2017,05,29,08,05,20.00
2017,05,29,08,06,20.00
2017,05,29,08,07,20.00
2017,05,29,08,08,20.10
2017,05,29,08,09,20.10
2017,05,29,08,10,20.00
2017,05,29,08,11,20.00
2017,05,29,08,12,20.00
2017,05,29,08,13,20.00
2017,05,29,08,14,20.00
2017,05,29,08,15,20.00
2017,05,29,08,16,20.00
2017,05,29,08,17,20.10
2017,05,29,08,18,20.10
2017,05,29,08,19,20.10
2017,05,29,08,20,20.20
2017,05,29,08,21,20.20
2017,05,29,08,22,20.20
2017,05,29,08,23,20.20
2017,05,29,08,24,20.30
2017,05,29,08,25,20.30
2017,05,29,08,26,20.20
2017,05,29,08,27,20.10
2017,05,29,08,28,20.00
2017,05,29,08,29,19.90
2017,05,29,08,30,19.80
2017,05,29,08,31,19.80
2017,05,29,08,32,19.80
2017,05,29,08,33,19.80
2017,05,29,08,34,19.90
2017,05,29,08,35,19.90
2017,05,29,08,36,20.00
2017,05,29,08,37,20.00
2017,05,29,08,38,20.10
2017,05,29,08,39,20.20
2017,05,29,08,40,20.30
2017,05,29,08,41,20.30
2017,05,29,08,42,20.30
2017,05,29,08,43,20.30
2017,05,29,08,44,20.20
2017,05,29,08,45,20.20
2017,05,29,08,46,20.20
2017,05,29,08,47,20.20
2017,05,29,08,48,20.20
2017,05,29,08,49,20.10
2017,05,29,08,50,20.20
2017,05,29,08,51,20.10
2017,05,29,08,52,20.10
2017,05,29,08,53,20.20
2017,05,29,08,54,20.20
2017,05,29,08,55,20.20
2017,05,29,08,56,20.20
2017,05,29,08,57,20.20
2017,05,29,08,58,20.20
2017,05,29,08,59,20.20
2017,05,29,09,00,20.20
2017,05,29,09,01,20.30
2017,05,29,09,02,20.40
2017,05,29,09,03,20.60
2017,05,29,09,04,20.70
2017,05,29,09,05,20.80
2017,05,29,09,06,20.90
2017,05,29,09,07,20.90
2017,05,29,09,08,21.00
2017,05,29,09,09,21.00
2017,05,29,09,10,20.90
2017,05,29,09,11,20.90
2017,05,29,09,12,20.90
2017,05,29,09,13,20.90
2017,05,29,09,14,21.00
2017,05,29,09,15,21.00
2017,05,29,09,16,21.10
2017,05,29,09,17,21.20
2017,05,29,09,18,21.20
2017,05,29,09,19,21.20
2017,05,29,09,20,21.20
2017,05,29,09,21,21.30
2017,05,29,09,22,21.30
2017,05,29,09,23,21.40
2017,05,29,09,24,21.40
2017,05,29,09,25,21.30
2017,05,29,09,26,21.40
2017,05,29,09,27,21.30
2017,05,29,09,28,21.40
2017,05,29,09,29,21.40
2017,05,29,09,30,21.40
2017,05,29,09,31,21.50
2017,05,29,09,32,21.60
2017,05,29,09,33,21.70
2017,05,29,09,34,21.70
2017,05,29,09,35,21.70
2017,05,29,09,36,21.70
2017,05,29,09,37,21.70
2017,05,29,09,38,21.80
2017,05,29,09,39,21.80
2017,05,29,09,40,21.80
2017,05,29,09,41,21.80
2017,05,29,09,42,21.70
2017,05,29,09,43,21.70
2017,05,29,09,44,21.60
2017,05,29,09,45,21.60
2017,05,29,09,46,21.60
2017,05,29,09,47,21.60
2017,05,29,09,48,21.60
2017,05,29,09,49,21.70
2017,05,29,09,50,21.70
2017,05,29,09,51,21.70
2017,05,29,09,52,21.60
2017,05,29,09,53,21.50
2017,05,29,09,54,21.40
2017,05,29,09,55,21.40
2017,05,29,09,56,21.40
2017,05,29,09,57,21.40
2017,05,29,09,58,21.60
2017,05,29,09,59,21.50
2017,05,29,10,00,21.50
2017,05,29,10,01,21.40
2017,05,29,10,02,21.50
2017,05,29,10,03,21.60
2017,05,29,10,04,21.80
2017,05,29,10,05,22.00
2017,05,29,10,06,22.10
2017,05,29,10,07,22.20
2017,05,29,10,08,22.20
2017,05,29,10,09,22.20
2017,05,29,10,10,22.20
2017,05,29,10,11,22.20
2017,05,29,10,12,22.10
2017,05,29,10,13,22.00
2017,05,29,10,14,21.90
2017,05,29,10,15,21.90
2017,05,29,10,16,21.90
2017,05,29,10,17,21.80
2017,05,29,10,18,21.90
2017,05,29,10,19,21.90
2017,05,29,10,20,21.90
2017,05,29,10,21,21.90
2017,05,29,10,22,22.00
2017,05,29,10,23,22.00
2017,05,29,10,24,22.10
2017,05,29,10,25,22.20
2017,05,29,10,26,22.20
2017,05,29,10,27,22.30
2017,05,29,10,28,22.30
2017,05,29,10,29,22.30
2017,05,29,10,30,22.30
2017,05,29,10,31,22.30
2017,05,29,10,32,22.30
2017,05,29,10,33,22.20
2017,05,29,10,34,22.20
2017,05,29,10,35,22.10
2017,05,29,10,36,22.10
2017,05,29,10,37,22.10
2017,05,29,10,38,22.20
2017,05,29,10,39,22.20
2017,05,29,10,40,22.20
2017,05,29,10,41,22.20
2017,05,29,10,42,22.10
2017,05,29,10,43,21.90
2017,05,29,10,44,21.90
2017,05,29,10,45,21.90
2017,05,29,10,46,21.90
2017,05,29,10,47,21.80
2017,05,29,10,48,21.80
2017,05,29,10,49,21.70
2017,05,29,10,50,21.70
2017,05,29,10,51,21.70
2017,05,29,10,52,21.80
2017,05,29,10,53,21.80
2017,05,29,10,54,21.80
2017,05,29,10,55,21.70
2017,05,29,10,56,21.60
2017,05,29,10,57,21.60
2017,05,29,10,58,21.80
2017,05,29,10,59,21.80
2017,05,29,11,00,21.80
2017,05,29,11,01,21.70
2017,05,29,11,02,21.80
2017,05,29,11,03,21.80
2017,05,29,11,04,21.80
2017,05,29,11,05,21.80
2017,05,29,11,06,21.80
2017,05,29,11,07,21.80
2017,05,29,11,08,21.80
2017,05,29,11,09,21.90
2017,05,29,11,10,22.10
2017,05,29,11,11,22.20
2017,05,29,11,12,22.10
2017,05,29,11,13,22.10
2017,05,29,11,14,22.10
2017,05,29,11,15,22.10
2017,05,29,11,16,22.00
2017,05,29,11,17,21.90
2017,05,29,11,18,21.80
2017,05,29,11,19,21.80
2017,05,29,11,20,21.70
2017,05,29,11,21,21.70
2017,05,29,11,22,21.80
2017,05,29,11,23,21.80
2017,05,29,11,24,21.80
2017,05,29,11,25,21.80
2017,05,29,11,26,21.80
2017,05,29,11,27,21.80
2017,05,29,11,28,21.60
2017,05,29,11,29,21.60
2017,05,29,11,30,21.50
2017,05,29,11,31,21.40
2017,05,29,11,32,21.30
2017,05,29,11,33,21.30
2017,05,29,11,34,21.40
2017,05,29,11,35,21.50
2017,05,29,11,36,21.50
2017,05,29,11,37,21.50
2017,05,29,11,38,21.50
2017,05,29,11,39,21.50
2017,05,29,11,40,21.40
2017,05,29,11,41,21.50
2017,05,29,11,42,21.60
2017,05,29,11,43,21.60
2017,05,29,11,44,21.50
2017,05,29,11,45,21.60
2017,05,29,11,46,21.70
2017,05,29,11,47,21.70
2017,05,29,11,48,21.80
2017,05,29,11,49,21.90
2017,05,29,11,50,22.00
2017,05,29,11,51,22.10
2017,05,29,11,52,22.20
2017,05,29,11,53,22.30
2017,05,29,11,54,22.40
2017,05,29,11,55,22.40
2017,05,29,11,56,22.30
2017,05,29,11,57,22.20
2017,05,29,11,58,22.00
2017,05,29,11,59,22.00
2017,05,29,12,00,22.00
2017,05,29,12,01,22.10
2017,05,29,12,02,22.00
2017,05,29,12,03,22.00
2017,05,29,12,04,22.10
2017,05,29,12,05,22.30
2017,05,29,12,06,22.30
2017,05,29,12,07,22.30
2017,05,29,12,08,22.30
2017,05,29,12,09,22.40
2017,05,29,12,10,22.40
2017,05,29,12,11,22.30
2017,05,29,12,12,22.20
2017,05,29,12,13,22.10
2017,05,29,12,14,22.10
2017,05,29,12,15,22.10
2017,05,29,12,16,22.10
2017,05,29,12,17,22.10
2017,05,29,12,18,22.10
2017,05,29,12,19,22.10
2017,05,29,12,20,22.10
2017,05,29,12,21,22.10
2017,05,29,12,22,22.10
2017,05,29,12,23,22.20
2017,05,29,12,24,22.40
2017,05,29,12,25,22.50
2017,05,29,12,26,22.50
2017,05,29,12,27,22.40
2017,05,29,12,28,22.30
2017,05,29,12,29,22.40
2017,05,29,12,30,22.50
2017,05,29,12,31,22.60
2017,05,29,12,32,22.80
2017,05,29,12,33,22.90
2017,05,29,12,34,23.00
2017,05,29,12,35,23.10
2017,05,29,12,36,23.20
2017,05,29,12,37,23.20
2017,05,29,12,38,23.00
2017,05,29,12,39,22.90
2017,05,29,12,40,22.90
2017,05,29,12,41,22.90
2017,05,29,12,42,22.90
2017,05,29,12,43,22.90
2017,05,29,12,44,22.90
2017,05,29,12,45,22.80
2017,05,29,12,46,22.80
2017,05,29,12,47,22.80
2017,05,29,12,48,22.70
2017,05,29,12,49,22.70
2017,05,29,12,50,22.70
2017,05,29,12,51,22.70
2017,05,29,12,52,22.70
2017,05,29,12,53,22.60
2017,05,29,12,54,22.60
2017,05,29,12,55,22.60
2017,05,29,12,56,22.60
2017,05,29,12,57,22.60
2017,05,29,12,58,22.70
2017,05,29,12,59,22.70
2017,05,29,13,00,22.70
2017,05,29,13,01,22.80
2017,05,29,13,02,22.80
2017,05,29,13,03,22.80
2017,05,29,13,04,22.80
2017,05,29,13,05,22.80
2017,05,29,13,06,22.80
2017,05,29,13,07,22.80
2017,05,29,13,08,22.70
2017,05,29,13,09,22.70
2017,05,29,13,10,22.70
2017,05,29,13,11,22.60
2017,05,29,13,12,22.60
2017,05,29,13,13,22.60
2017,05,29,13,14,22.60
2017,05,29,13,15,22.60
2017,05,29,13,16,22.70
2017,05,29,13,17,22.70
2017,05,29,13,18,22.70
2017,05,29,13,19,22.80
2017,05,29,13,20,22.80
2017,05,29,13,21,22.80
2017,05,29,13,22,22.90
2017,05,29,13,23,22.90
2017,05,29,13,24,22.80
2017,05,29,13,25,22.80
2017,05,29,13,26,22.80
2017,05,29,13,27,22.80
2017,05,29,13,28,22.90
2017,05,29,13,29,23.10
2017,05,29,13,30,23.20
2017,05,29,13,31,23.30
2017,05,29,13,32,23.40
2017,05,29,13,33,23.50
2017,05,29,13,34,23.40
2017,05,29,13,35,23.30
2017,05,29,13,36,23.30
2017,05,29,13,37,23.30
2017,05,29,13,38,23.30
2017,05,29,13,39,23.30
2017,05,29,13,40,23.40
2017,05,29,13,41,23.40
2017,05,29,13,42,23.20
2017,05,29,13,43,23.10
2017,05,29,13,44,23.00
2017,05,29,13,45,23.00
2017,05,29,13,46,23.00
2017,05,29,13,47,23.00
2017,05,29,13,48,23.10
2017,05,29,13,49,23.10
2017,05,29,13,50,23.10
2017,05,29,13,51,23.00
2017,05,29,13,52,23.00
2017,05,29,13,53,23.00
2017,05,29,13,54,23.00
2017,05,29,13,55,23.10
2017,05,29,13,56,23.20
2017,05,29,13,57,23.30
2017,05,29,13,58,23.40
2017,05,29,13,59,23.40
2017,05,29,14,00,23.50
2017,05,29,14,01,23.60
2017,05,29,14,02,23.70
2017,05,29,14,03,23.80
2017,05,29,14,04,23.80
2017,05,29,14,05,23.90
2017,05,29,14,06,23.90
2017,05,29,14,07,23.90
2017,05,29,14,08,24.00
2017,05,29,14,09,24.00
2017,05,29,14,10,24.00
2017,05,29,14,11,24.00
2017,05,29,14,12,24.00
2017,05,29,14,13,24.00
2017,05,29,14,14,24.20
2017,05,29,14,15,24.30
2017,05,29,14,16,24.40
2017,05,29,14,17,24.40
2017,05,29,14,18,24.40
2017,05,29,14,19,24.30
2017,05,29,14,20,24.40
2017,05,29,14,21,24.40
2017,05,29,14,22,24.40
2017,05,29,14,23,24.30
2017,05,29,14,24,24.30
2017,05,29,14,25,24.30
2017,05,29,14,26,24.30
2017,05,29,14,27,24.40
2017,05,29,14,28,24.50
2017,05,29,14,29,24.60
2017,05,29,14,30,24.60
2017,05,29,14,31,24.70
2017,05,29,14,32,24.70
2017,05,29,14,33,24.80
2017,05,29,14,34,25.00
2017,05,29,14,35,25.00
2017,05,29,14,36,25.10
2017,05,29,14,37,25.00
2017,05,29,14,38,25.10
2017,05,29,14,39,25.10
2017,05,29,14,40,25.10
2017,05,29,14,41,25.10
2017,05,29,14,42,25.10
2017,05,29,14,43,25.10
2017,05,29,14,44,25.00
2017,05,29,14,45,24.70
2017,05,29,14,46,24.60
2017,05,29,14,47,24.50
2017,05,29,14,48,24.50
2017,05,29,14,49,24.50
2017,05,29,14,50,24.50
2017,05,29,14,51,24.60
2017,05,29,14,52,24.50
2017,05,29,14,53,24.50
2017,05,29,14,54,24.40
2017,05,29,14,55,24.50
2017,05,29,14,56,24.50
2017,05,29,14,57,24.70
2017,05,29,14,58,24.80
2017,05,29,14,59,24.90
2017,05,29,15,00,25.00
2017,05,29,15,01,25.10
2017,05,29,15,02,25.20
2017,05,29,15,03,25.10
2017,05,29,15,04,25.20
2017,05,29,15,05,25.20
2017,05,29,15,06,25.10
2017,05,29,15,07,25.00
2017,05,29,15,08,24.90
2017,05,29,15,09,24.90
2017,05,29,15,10,25.00
2017,05,29,15,11,25.00
2017,05,29,15,12,24.90
2017,05,29,15,13,24.90
2017,05,29,15,14,24.90
2017,05,29,15,15,25.00
2017,05,29,15,16,25.10
2017,05,29,15,17,25.20
2017,05,29,15,18,25.30
2017,05,29,15,19,25.30
2017,05,29,15,20,25.30
2017,05,29,15,21,25.20
2017,05,29,15,22,25.10
2017,05,29,15,23,25.00
2017,05,29,15,24,25.00
2017,05,29,15,25,25.00
2017,05,29,15,26,24.90
2017,05,29,15,27,25.00
2017,05,29,15,28,25.00
2017,05,29,15,29,24.90
2017,05,29,15,30,24.90
2017,05,29,15,31,24.90
2017,05,29,15,32,24.80
2017,05,29,15,33,24.80
2017,05,29,15,34,24.80
2017,05,29,15,35,24.90
2017,05,29,15,36,24.90
2017,05,29,15,37,25.00
2017,05,29,15,38,25.10
2017,05,29,15,39,25.30
2017,05,29,15,40,25.40
2017,05,29,15,41,25.40
2017,05,29,15,42,25.50
2017,05,29,15,43,25.70
2017,05,29,15,44,25.70
2017,05,29,15,45,25.70
2017,05,29,15,46,25.60
2017,05,29,15,47,25.70
2017,05,29,15,48,25.70
2017,05,29,15,49,25.80
2017,05,29,15,50,25.90
2017,05,29,15,51,25.90
2017,05,29,15,52,25.90
2017,05,29,15,53,25.80
2017,05,29,15,54,25.80
2017,05,29,15,55,25.80
2017,05,29,15,56,25.80
2017,05,29,15,57,25.70
2017,05,29,15,58,25.70
2017,05,29,15,59,25.70
2017,05,29,16,00,25.70
2017,05,29,16,01,25.70
2017,05,29,16,02,25.80
2017,05,29,16,03,25.90
2017,05,29,16,04,25.90
2017,05,29,16,05,26.00
2017,05,29,16,06,26.00
2017,05,29,16,07,26.00
2017,05,29,16,08,25.90
2017,05,29,16,09,25.90
2017,05,29,16,10,25.90
2017,05,29,16,11,25.90
2017,05,29,16,12,25.90
2017,05,29,16,13,25.90
2017,05,29,16,14,26.00
2017,05,29,16,15,26.00
2017,05,29,16,16,26.10
2017,05,29,16,17,26.10
2017,05,29,16,18,26.10
2017,05,29,16,19,26.00
2017,05,29,16,20,26.00
2017,05,29,16,21,25.90
2017,05,29,16,22,25.80
2017,05,29,16,23,25.70
2017,05,29,16,24,25.70
2017,05,29,16,25,25.60
2017,05,29,16,26,25.60
2017,05,29,16,27,25.60
2017,05,29,16,28,25.60
2017,05,29,16,29,25.60
2017,05,29,16,30,25.60
2017,05,29,16,31,25.60
2017,05,29,16,32,25.60
2017,05,29,16,33,25.70
2017,05,29,16,34,25.70
2017,05,29,16,35,25.70
2017,05,29,16,36,25.70
2017,05,29,16,37,25.80
2017,05,29,16,38,25.80
2017,05,29,16,39,25.80
2017,05,29,16,40,25.90
2017,05,29,16,41,25.80
2017,05,29,16,42,25.80
2017,05,29,16,43,25.80
2017,05,29,16,44,25.80
2017,05,29,16,45,25.90
2017,05,29,16,46,25.80
2017,05,29,16,47,25.70
2017,05,29,16,48,25.70
2017,05,29,16,49,25.70
2017,05,29,16,50,25.70
2017,05,29,16,51,25.70
2017,05,29,16,52,25.70
2017,05,29,16,53,25.70
2017,05,29,16,54,25.70
2017,05,29,16,55,25.60
2017,05,29,16,56,25.60
2017,05,29,16,57,25.60
2017,05,29,16,58,25.60
2017,05,29,16,59,25.50
2017,05,29,17,00,25.40
2017,05,29,17,01,25.40
2017,05,29,17,02,25.40
2017,05,29,17,03,25.50
2017,05,29,17,04,25.50
2017,05,29,17,05,25.60
2017,05,29,17,06,25.70
2017,05,29,17,07,25.70
2017,05,29,17,08,25.80
2017,05,29,17,09,25.80
2017,05,29,17,10,25.90
2017,05,29,17,11,25.90
2017,05,29,17,12,25.80
2017,05,29,17,13,25.80
2017,05,29,17,14,25.80
2017,05,29,17,15,25.70
2017,05,29,17,16,25.70
2017,05,29,17,17,25.60
2017,05,29,17,18,25.50
2017,05,29,17,19,25.50